STARLINK-4544 (53394 NORAD) Tracking and Keplerian Element Data

This shows tracking and keplerian element data for the satellite.

Feedback or suggestion? Click here.




ElementValue
Catalog53394
NameSTARLINK-4544
Epoch Orbit130
Epoch Day269.91667824
Epoch Year2022
RAAN12.1725
Inclination53.2173
Eccentricity0.0001705
Argument of Perigee33.7257
Mean Anonmoly259.1948
Mean Motion15.52520588
Decay Rate-0.01063801
L11 53394U 22097G 22269.91667824 -.01063801 00000+0 -18781-1 0 9994
L22 53394 53.2173 12.1725 0001705 33.7257 259.1948 15.52520588 1308

Live tracking and technical data element details for STARLINK-4544 (NORAD 53394). STARLINK-4544 can be tracked NOW for your location showing map with azimuth and elevation plus other details from your city location.

Track the satellite on the map from your city or location and see movement details for azimuth, elevation, latitude, longitude, range, height, and movement on the map or in text.







IsCatalogInMostPopularTable: catalog: 53394, numindb: 4
Update: records affected: 1



GetName: 53394 STARLINK-4544

Hit Count: updated at: Thu, 29 Sep 2022 10:18:31 GMT